Torna al catalogo

COSMOS 1275 DEB

AttivoPO
NORAD 14357·DEBRIS·🇷🇺 Russia

Lanciato Jun 4, 1981 da Plesetsk Cosmodrome

Loading…

Prossimi Passaggi (prossime 24 ore)

TLE

AggiornatoSource: Space-Track

Epoca: Sep 14, 2026, 00:35 UTC

1 14357U 81053HQ  26257.02476574  .00001209  00000-0  57813-3 0  9993
2 14357  82.8417 279.2619 0041942 127.2866 260.9801 14.17951081216372

Traccia COSMOS 1275 DEB in tempo reale con AllMySat

Download on the App Store